#timestamp,LO_Frequency,Hit,StdDev 
1592841615.6,286046999.1,P
1592841635.4,286046997.1,P
1592841655.3,286046997.4,P
1592841675.1,286046996.5,Y
1592841695.9,286047002.2,P
1592841715.7,286047001.6,N
1592841735.5,286046999.9,N
1592841755.4,286047002.0,N
1592841775.2,286046999.7,N
1592841795.0,286047002.6,N
1592841795.9,286047002.6,N
1592841815.8,286047001.3,N
1592841835.6,286047001.3,N
1592841855.5,286047004.3,N
1592841875.3,286047004.3,N
1592841895.1,286047004.3,N
1592841915.9,286047001.8,N
1592841935.7,286047001.9,N
1592841955.6,286047004.1,N
1592841975.4,286047001.3,N
1592841995.2,286047005.5,Y
1592842015.1,286047001.7,P
1592842016.0,286047001.7,P
1592842035.8,286047003.7,P
1592842055.7,286047004.2,Y
1592842075.5,286047002.0,P
1592842095.3,286046999.9,N
1592842115.2,286046999.7,N
1592842135.0,286046999.9,N
1592842135.9,286046999.9,N
1592842155.7,286046999.9,N
1592842175.6,286046998.2,N
1592842195.4,286047000.8,N
1592842215.3,286047000.0,N
1592842235.1,286047000.1,N
1592842255.8,286047000.4,N
1592842275.7,286047001.1,N
1592842295.5,286047000.6,N
1592842315.4,286047000.8,N
1592842335.2,286047000.3,N
1592842355.0,286047000.4,N
1592842355.9,286047000.4,N
1592842375.8,286047000.3,N
1592842395.6,286047002.6,Y
1592842415.5,286047002.5,P
1592842435.3,286046999.8,N
1592842455.1,286047001.1,N
1592842475.9,286046999.3,N
1592842495.7,286046999.6,N
1592842515.6,286046996.9,N
1592842535.4,286046999.6,N
1592842555.2,286046999.5,N
1592842575.1,286046997.2,N
1592842576.0,286046997.2,N
1592842595.8,286046997.9,N
1592842615.6,286046997.1,N
1592842635.5,286046999.0,N
1592842655.3,286046999.1,N
1592842675.2,286046997.2,N
1592842695.9,286046999.2,N
1592842715.7,286046997.3,N
1592842735.6,286046997.6,N
1592842755.4,286046995.1,Y
1592842775.3,286046997.3,P
1592842795.1,286046995.0,P
1592842796.0,286046995.0,P
1592842815.8,286046997.3,N
1592842835.7,286046996.7,N
1592842855.5,286046999.0,N
1592842875.3,286046999.3,N
1592842895.2,286046999.2,N
1592842915.0,286046998.4,N
1592842915.9,286046998.4,N
1592842935.8,286046998.2,N
1592842955.6,286046998.7,N
1592842975.4,286046998.1,N
1592842995.3,286046999.9,N
1592843015.1,286047000.5,N
1592843035.9,286046998.1,N
1592843055.7,286047000.7,N
1592843075.5,286047002.7,N
1592843095.4,286047000.6,N
1592843115.2,286047002.7,N
1592843135.0,286047002.4,N
1592843135.9,286047002.4,N
1592843155.8,286047002.3,N
1592843175.6,286047000.8,N
1592843195.5,286046998.8,N
1592843215.3,286046997.0,N
1592843235.1,286046997.1,N
1592843255.9,286046993.7,N
1592843275.7,286046996.3,N
1592843295.6,286046995.6,N
1592843315.4,286046995.6,N
1592843335.2,286046997.5,N
1592843355.1,286046997.0,N
1592843356.0,286046997.0,N
1592843375.8,286046996.5,N
1592843395.7,286046997.1,N
1592843415.5,286046998.0,N
1592843435.3,286046995.3,N
1592843455.2,286046997.5,N
1592843475.0,286046995.4,N
1592843475.9,286046995.4,N
1592843495.7,286046995.0,N
1592843515.6,286046995.1,N
1592843535.4,286046996.3,N
1592843555.3,286046995.4,N
1592843575.1,286046995.4,N
1592843595.8,286046995.2,N
1592843615.7,286046993.4,N
1592843635.5,286046995.7,N
1592843655.4,286046993.7,N
1592843675.2,286046995.9,N
1592843695.0,286046994.2,N
1592843695.9,286046994.2,Y
1592843715.8,286046999.5,P
1592843735.6,286046998.4,N
1592843755.5,286046998.9,N
1592843775.3,286047001.2,N
1592843795.1,286047002.6,N
1592843815.9,286047001.2,N
1592843835.7,286046998.3,N
1592843855.5,286047000.0,N
1592843875.4,286047000.8,N
1592843895.2,286046998.6,N
1592843915.1,286046998.2,N
1592843916.0,286046998.2,N
1592843935.8,286047000.7,N
1592843955.6,286047002.4,N
1592843975.5,286047002.2,N
1592843995.3,286047000.3,N
1592844015.1,286047000.4,N
1592844035.9,286047001.0,N
1592844055.7,286046999.1,N
1592844075.6,286047000.8,N
1592844095.4,286047000.9,N
1592844115.2,286047000.3,N
1592844135.1,286046999.9,N
1592844136.0,286046999.9,N
1592844155.8,286047001.0,N
1592844175.7,286047000.0,N
1592844195.5,286047000.6,N
1592844215.3,286046998.3,N
1592844235.2,286047000.2,N
1592844255.0,286046998.5,N
1592844255.9,286046998.5,N
1592844275.7,286047000.9,N
1592844295.6,286046999.5,N
1592844315.4,286046999.6,N
1592844335.3,286047002.6,N
1592844355.1,286047000.7,N
1592844375.8,286046999.1,N
1592844395.7,286046997.1,N
1592844415.5,286046999.5,N
1592844435.4,286046999.3,N
1592844455.2,286046998.2,N
1592844475.0,286046998.3,N
1592844475.9,286046998.3,N
1592844495.8,286046997.7,N
1592844515.6,286046999.0,N
1592844535.4,286046998.3,N
1592844555.3,286046998.8,N
1592844575.1,286046998.9,N
1592844595.9,286046998.9,N
1592844615.7,286046998.7,N
1592844635.5,286047000.8,N
1592844655.4,286046998.9,N
1592844675.2,286047000.0,N
1592844695.1,286046999.7,N
1592844696.0,286046999.7,N
1592844715.8,286047000.3,N
1592844735.6,286047000.6,N
1592844755.5,286047000.1,N
1592844775.3,286047002.5,N
1592844795.2,286047000.2,N
1592844815.9,286047002.3,N
1592844835.7,286047001.6,N
1592844855.6,286047002.5,N
1592844875.4,286047000.7,N
1592844895.2,286046999.1,N
1592844915.1,286047000.8,N
1592844916.0,286047000.8,N
1592844935.8,286047000.5,N
1592844955.7,286047000.1,N
1592844975.5,286047001.0,N
1592844995.3,286047000.1,N
1592845015.2,286047002.8,N
1592845035.0,286047002.4,N
1592845035.9,286047002.4,N
1592845055.8,286047002.7,N
1592845075.6,286047001.4,N
1592845095.4,286047002.1,N
1592845115.3,286047002.0,N
1592845135.1,286047001.8,N
1592845155.8,286047002.5,N
1592845175.7,286047001.8,N
1592845195.5,286047001.6,N
